Regional Weather Roundup
Issued by NWS Albany, NY

Home | Current Version | Previous Version | Text Only | Print | Product List | Glossary On
Versions: 1 2 3 4 5 6 7 8 9 10 11 12 13 14 15 16 17 18 19 20 21 22 23 24 25 26 27
000
ASUS41 KALY 261410
RWRALY

NEW YORK STATE HOURLY WEATHER ROUNDUP
NATIONAL WEATHER SERVICE ALBANY NY
1000 AM EDT TUE JUL 26 2016

NOTE: "FAIR" INDICATES FEW OR NO CLOUDS BELOW 12,000 FEET WITH NO
SIGNIFICANT WEATHER AND/OR NO OBSTRUCTIONS TO VISIBILITY.

NYZ032-033-038>043-046>054-057>066-NYZ062>081-082-084-261500-
EAST


CITY           SKY/WX    TMP DP  RH WIND       PRES   REMARKS
ALBANY         MOSUNNY   79  63  57 NW17      29.89S
GLENS FALLS    PTSUNNY   78  62  57 SE3       29.86F
POUGHKEEPSIE   SUNNY     81  68  64 W3        29.89F
NEWBURGH       MOSUNNY   79  72  78 NW12      29.94S
MONTGOMERY     SUNNY     79  70  74 W8        29.92S
WHITE PLAINS   MOSUNNY   79  69  71 NW12      29.92S
ISLIP          MOSUNNY   84  69  60 W7        29.89S
NEW YORK CITY  MOSUNNY   83  68  60 N7        29.90F
CENTRAL PARK   SUNNY     79  68  69 VRB6      29.94F
$$

NYZ005>009-017-018-044>046-055-056-261500-
CENTRAL


CITY           SKY/WX    TMP DP  RH WIND       PRES   REMARKS
FULTON         CLOUDY    75  65  70 NW10      29.95R
SYRACUSE       PTSUNNY   72  64  78 W13       29.95R
ROME           CLOUDY    72  65  78 W12       29.94S
ELMIRA         MOSUNNY   78  61  55 VRB3      29.98S
BINGHAMTON     MOSUNNY   72  63  73 NW8       29.99S
MONTICELLO     MOSUNNY   73  66  78 W9        29.98S
$$

NYZ026>034-041>043-087-261500-
NORTH


CITY           SKY/WX    TMP DP  RH WIND       PRES   REMARKS
WATERTOWN      SUNNY     75  63  66 SW8       29.92R
FORT DRUM      NOT AVBL
MASSENA        MOSUNNY   75  64  68 W12       29.87S
SARANAC LAKE   PTSUNNY   72  60  66 VRB6      29.90S
PLATTSBURGH    PTSUNNY   81  63  54 CALM      29.82R
$$

NYZ001>004-010>016-019>021-085-261500-
WEST


CITY           SKY/WX    TMP DP  RH WIND       PRES   REMARKS
NIAGARA FALLS  MOSUNNY   74  60  61 N9        30.01S
BUFFALO        MOSUNNY   73  60  63 NW6       30.02R
DUNKIRK        SUNNY     72  61  68 W9        30.04S
JAMESTOWN      SUNNY     70  57  64 NW6       30.07S
WELLSVILLE     SUNNY     73  58  59 NW10      30.07R
ROCHESTER      MOSUNNY   75  63  66 NW13      30.00R
PENN YAN       SUNNY     74  60  61 VRB7      30.00R
$$

             KEY
       WCI = WIND CHILL INDEX
       VSB = VISIBILITY
       HX  = HEAT INDEX
$$




USA.gov is the U.S. government's official web portal to all federal, state and local government web resources and services.